• In Czech Republic
  • List of Countries
  • For 7 days
  • Water Temperature
  • Satellite Maps
  • Weather Map
  • Weather Widgets
  • user-avatar
    Login

    Hourly Weather Dhamar

    Today, 23 October, Tuesday

    Time Temperature Precipitation Wind Pressure Humidity
    00:00 +18°C° 0.4 mm 1 mps 586 mmHg 69%
    01:00 +18°C° 0.2 mm 1 mps 586 mmHg 70%
    02:00 +18°C° 0.2 mm 1 mps 585 mmHg 71%
    03:00 +15°C° 0 mm 0 mps 585 mmHg 72%
    04:00 +15°C° 0 mm 0 mps 585 mmHg 73%
    05:00 +15°C° 0 mm 0 mps 585 mmHg 73%
    06:00 +14°C° 0 mm 0 mps 585 mmHg 74%
    07:00 +18°C° 0 mm 1 mps 586 mmHg 65%
    08:00 +19°C° 0 mm 1 mps 587 mmHg 57%
    09:00 +20°C° 0 mm 2 mps 588 mmHg 47%
    10:00 +21°C° 0 mm 2 mps 588 mmHg 43%
    11:00 +22°C° 0 mm 3 mps 588 mmHg 39%
    12:00 +24°C° 0 mm 3 mps 588 mmHg 36%
    13:00 +24°C° 0.2 mm 3 mps 588 mmHg 38%
    14:00 +23°C° 0.2 mm 4 mps 587 mmHg 39%
    15:00 +22°C° 0.2 mm 4 mps 587 mmHg 41%
    16:00 +22°C° 0.3 mm 4 mps 586 mmHg 46%
    17:00 +21°C° 0.3 mm 4 mps 586 mmHg 50%
    18:00 +20°C° 0.3 mm 4 mps 586 mmHg 54%
    19:00 +19°C° 0.1 mm 3 mps 586 mmHg 57%
    20:00 +19°C° 0.1 mm 3 mps 586 mmHg 59%
    21:00 +18°C° 0.1 mm 2 mps 586 mmHg 62%
    22:00 +18°C° 0 mm 2 mps 586 mmHg 64%
    23:00 +18°C° 0 mm 1 mps 586 mmHg 66%

    Tomorrow, 24 October, Wednesday

    Time Temperature Precipitation Wind Pressure Humidity
    00:00 +18°C° 0 mm 1 mps 586 mmHg 68%
    01:00 +18°C° 0 mm 1 mps 585 mmHg 69%
    02:00 +16°C° 0 mm 1 mps 585 mmHg 70%
    03:00 +15°C° 0 mm 0 mps 584 mmHg 71%
    04:00 +15°C° 0 mm 0 mps 584 mmHg 70%
    05:00 +16°C° 0 mm 1 mps 584 mmHg 70%
    06:00 +15°C° 0 mm 1 mps 584 mmHg 69%
    07:00 +18°C° 0 mm 1 mps 585 mmHg 60%
    08:00 +18°C° 0 mm 2 mps 586 mmHg 50%
    09:00 +20°C° 0 mm 2 mps 587 mmHg 40%
    10:00 +21°C° 0 mm 2 mps 587 mmHg 37%
    11:00 +22°C° 0 mm 3 mps 587 mmHg 34%
    12:00 +24°C° 0 mm 3 mps 588 mmHg 30%
    13:00 +24°C° 0 mm 3 mps 587 mmHg 31%
    14:00 +23°C° 0 mm 4 mps 587 mmHg 33%
    15:00 +25°C° 0 mm 4 mps 586 mmHg 34%
    16:00 +22°C° 0.1 mm 4 mps 586 mmHg 39%
    17:00 +21°C° 0.1 mm 4 mps 586 mmHg 45%
    18:00 +20°C° 0.1 mm 4 mps 585 mmHg 51%
    19:00 +20°C° 0.1 mm 3 mps 585 mmHg 53%
    20:00 +19°C° 0.1 mm 3 mps 586 mmHg 56%
    21:00 +18°C° 0.1 mm 2 mps 586 mmHg 59%
    22:00 +18°C° 0 mm 2 mps 586 mmHg 61%
    23:00 +19°C° 0 mm 1 mps 585 mmHg 62%

    Day after tomorrow, 25 October, Thursday

    Time Temperature Precipitation Wind Pressure Humidity
    00:00 +18°C° 0 mm 1 mps 585 mmHg 64%
    01:00 +18°C° 0 mm 1 mps 585 mmHg 64%
    02:00 +18°C° 0 mm 1 mps 584 mmHg 65%
    03:00 +16°C° 0 mm 1 mps 584 mmHg 65%
    04:00 +16°C° 0 mm 1 mps 584 mmHg 64%
    05:00 +16°C° 0 mm 1 mps 584 mmHg 63%
    06:00 +16°C° 0 mm 1 mps 584 mmHg 62%
    07:00 +18°C° 0 mm 1 mps 585 mmHg 54%
    08:00 +19°C° 0 mm 2 mps 586 mmHg 45%
    09:00 +21°C° 0 mm 2 mps 587 mmHg 36%
    10:00 +22°C° 0 mm 3 mps 587 mmHg 33%
    11:00 +24°C° 0 mm 3 mps 587 mmHg 31%
    12:00 +24°C° 0 mm 3 mps 587 mmHg 29%
    13:00 +25°C° 0 mm 3 mps 587 mmHg 30%
    14:00 +25°C° 0 mm 4 mps 586 mmHg 32%
    15:00 +25°C° 0 mm 4 mps 586 mmHg 33%
    16:00 +23°C° 0.1 mm 4 mps 586 mmHg 39%
    17:00 +21°C° 0.1 mm 3 mps 585 mmHg 45%
    18:00 +20°C° 0.1 mm 3 mps 585 mmHg 51%
    19:00 +20°C° 0.1 mm 3 mps 585 mmHg 54%
    20:00 +19°C° 0.1 mm 3 mps 586 mmHg 56%
    21:00 +19°C° 0.1 mm 2 mps 586 mmHg 59%
    22:00 +18°C° 0 mm 2 mps 586 mmHg 61%
    23:00 +18°C° 0 mm 2 mps 586 mmHg 63%

    26 October, Friday

    Time Temperature Precipitation Wind Pressure Humidity
    00:00 +19°C° 0 mm 1 mps 585 mmHg 65%
    01:00 +18°C° 0 mm 1 mps 585 mmHg 66%
    02:00 +18°C° 0 mm 1 mps 585 mmHg 68%
    03:00 +18°C° 0 mm 1 mps 584 mmHg 69%
    04:00 +16°C° 0 mm 1 mps 584 mmHg 69%
    05:00 +16°C° 0 mm 1 mps 584 mmHg 69%
    06:00 +16°C° 0 mm 1 mps 585 mmHg 70%
    07:00 +18°C° 0 mm 1 mps 586 mmHg 59%
    08:00 +20°C° 0 mm 1 mps 587 mmHg 49%
    09:00 +20°C° 0 mm 2 mps 588 mmHg 39%
    10:00 +21°C° 0 mm 2 mps 588 mmHg 36%
    11:00 +23°C° 0 mm 2 mps 588 mmHg 33%
    12:00 +25°C° 0 mm 3 mps 588 mmHg 30%
    13:00 +25°C° 0 mm 3 mps 587 mmHg 31%
    14:00 +25°C° 0 mm 4 mps 587 mmHg 32%
    15:00 +25°C° 0 mm 4 mps 586 mmHg 33%
    16:00 +23°C° 0.1 mm 4 mps 586 mmHg 38%
    17:00 +22°C° 0.1 mm 4 mps 586 mmHg 43%
    18:00 +21°C° 0.1 mm 4 mps 586 mmHg 48%
    19:00 +20°C° 0.1 mm 3 mps 586 mmHg 49%
    20:00 +19°C° 0.1 mm 3 mps 586 mmHg 50%
    21:00 +19°C° 0.1 mm 3 mps 587 mmHg 51%
    22:00 +18°C° 0 mm 2 mps 586 mmHg 53%
    23:00 +18°C° 0 mm 2 mps 586 mmHg 55%

    27 October, Saturday

    Time Temperature Precipitation Wind Pressure Humidity
    00:00 +18°C° 0 mm 1 mps 586 mmHg 56%
    01:00 +18°C° 0 mm 1 mps 585 mmHg 57%
    02:00 +18°C° 0 mm 1 mps 585 mmHg 58%
    03:00 +16°C° 0 mm 1 mps 584 mmHg 59%
    04:00 +16°C° 0 mm 1 mps 585 mmHg 60%
    05:00 +16°C° 0 mm 1 mps 585 mmHg 60%
    06:00 +15°C° 0 mm 1 mps 585 mmHg 60%
    07:00 +18°C° 0 mm 1 mps 586 mmHg 51%
    08:00 +19°C° 0 mm 1 mps 587 mmHg 43%
    09:00 +20°C° 0 mm 2 mps 588 mmHg 34%
    10:00 +21°C° 0 mm 2 mps 588 mmHg 31%
    11:00 +22°C° 0 mm 3 mps 588 mmHg 28%
    12:00 +24°C° 0 mm 3 mps 588 mmHg 25%
    13:00 +24°C° 0 mm 3 mps 587 mmHg 26%
    14:00 +25°C° 0 mm 4 mps 587 mmHg 27%
    15:00 +25°C° 0 mm 4 mps 587 mmHg 27%
    16:00 +23°C° 0 mm 4 mps 586 mmHg 32%
    17:00 +22°C° 0 mm 4 mps 586 mmHg 37%
    18:00 +20°C° 0 mm 4 mps 586 mmHg 42%
    19:00 +20°C° 0 mm 4 mps 586 mmHg 45%
    20:00 +19°C° 0 mm 3 mps 586 mmHg 47%
    21:00 +18°C° 0 mm 2 mps 586 mmHg 49%
    22:00 +18°C° 0 mm 2 mps 586 mmHg 51%
    23:00 +18°C° 0 mm 2 mps 586 mmHg 52%

    28 October, Sunday

    Time Temperature Precipitation Wind Pressure Humidity
    00:00 +18°C° 0 mm 1 mps 585 mmHg 53%
    01:00 +18°C° 0 mm 1 mps 585 mmHg 54%
    02:00 +16°C° 0 mm 1 mps 585 mmHg 54%
    03:00 +16°C° 0 mm 1 mps 584 mmHg 55%
    04:00 +15°C° 0 mm 1 mps 584 mmHg 54%
    05:00 +15°C° 0 mm 1 mps 584 mmHg 52%
    06:00 +15°C° 0 mm 1 mps 585 mmHg 51%
    07:00 +16°C° 0 mm 1 mps 586 mmHg 44%
    08:00 +18°C° 0 mm 2 mps 587 mmHg 37%
    09:00 +20°C° 0 mm 2 mps 588 mmHg 30%
    10:00 +21°C° 0 mm 2 mps 588 mmHg 27%
    11:00 +22°C° 0 mm 3 mps 588 mmHg 25%
    12:00 +24°C° 0 mm 3 mps 588 mmHg 23%
    13:00 +24°C° 0 mm 3 mps 587 mmHg 24%
    14:00 +23°C° 0 mm 4 mps 587 mmHg 25%
    15:00 +25°C° 0 mm 4 mps 587 mmHg 26%
    16:00 +22°C° 0 mm 4 mps 586 mmHg 31%
    17:00 +21°C° 0 mm 4 mps 586 mmHg 37%
    18:00 +20°C° 0 mm 4 mps 586 mmHg 42%
    19:00 +19°C° 0 mm 3 mps 586 mmHg 44%
    20:00 +19°C° 0 mm 3 mps 586 mmHg 45%
    21:00 +18°C° 0 mm 2 mps 586 mmHg 47%
    22:00 +18°C° 0 mm 2 mps 586 mmHg 48%
    23:00 +17°C° 0 mm 2 mps 586 mmHg 49%

    29 October, Monday

    Time Temperature Precipitation Wind Pressure Humidity
    00:00 +18°C° 0 mm 1 mps 585 mmHg 50%
    01:00 +18°C° 0 mm 1 mps 585 mmHg 51%
    02:00 +16°C° 0 mm 1 mps 584 mmHg 51%
    03:00 +16°C° 0 mm 1 mps 584 mmHg 51%
    04:00 +15°C° 0 mm 1 mps 584 mmHg 51%
    05:00 +15°C° 0 mm 1 mps 584 mmHg 50%
    06:00 +15°C° 0 mm 1 mps 584 mmHg 49%
    07:00 +16°C° 0 mm 2 mps 585 mmHg 43%
    08:00 +18°C° 0 mm 2 mps 586 mmHg 38%
    09:00 +19°C° 0 mm 3 mps 587 mmHg 32%
    10:00 +21°C° 0 mm 3 mps 587 mmHg 29%
    11:00 +22°C° 0 mm 3 mps 587 mmHg 27%
    12:00 +24°C° 0 mm 3 mps 587 mmHg 25%
    13:00 +24°C° 0 mm 3 mps 587 mmHg 25%
    14:00 +24°C° 0 mm 3 mps 586 mmHg 25%
    15:00 +25°C° 0 mm 4 mps 586 mmHg 25%
    16:00 +22°C° 0 mm 4 mps 586 mmHg 30%
    17:00 +21°C° 0 mm 4 mps 586 mmHg 34%
    18:00 +20°C° 0 mm 4 mps 586 mmHg 39%
    19:00 +19°C° 0 mm 3 mps 586 mmHg 42%
    20:00 +19°C° 0 mm 3 mps 586 mmHg 44%
    21:00 +18°C° 0 mm 2 mps 586 mmHg 47%
    22:00 +18°C° 0 mm 2 mps 585 mmHg 48%
    23:00 +17°C° 0 mm 2 mps 585 mmHg 49%
    Show more